[[{"header":{"parameterUnit":"m.s-1","parameterCategory":1,"la1":30.2991,"la2":30.254,"lo1":-89.0895,"lo2":-89.0444,"dy":0.0017,"dx":0.0017,"nx":28,"ny":28,"refTime":"2023-09-10T21:00:00:Z","depth":0,"parameterNumber":2,"parameterNumberName":"U-component_of_WINDS"},"data":[0,0,0,0,0,0,0,0,0,0,0,0,0,0,0,0,0,0,0,0,0,0,0,0,0,0,0,0,0,0,0,0,0,0,0,0,0,0,0,0,0,0,0,0,0,0,0,0,0,0,0,0,0,0,0,0,0,0,-0.03,-0.0301,0,-0.0322,-0.0322,-0.0322,-0.0322,-0.0321,-0.0321,-0.0321,-0.0344,-0.0345,-0.0346,0,0,0,0,0,0,0,0,0,0,0,0,0,-0.0262,-0.0262,-0.03,-0.0301,-0.0301,-0.0322,-0.0322,-0.0322,-0.0322,-0.0321,-0.0321,-0.0321,-0.0344,-0.0345,-0.0346,0,0,0,0,0,0,0,0,0,0,0,0,0,-0.028,-0.0262,-0.03,-0.0303,-0.0303,-0.0322,-0.0322,-0.0322,-0.0322,-0.0321,-0.0321,-0.032,-0.0344,-0.0345,-0.0346,-0.0364,0,0,-0.0351,-0.0351,0,0,0,0,0,0,0,0,-0.0279,-0.0282,-0.0302,-0.0303,-0.0303,-0.0318,-0.0317,-0.0336,-0.0322,-0.0315,-0.0321,-0.032,-0.0336,-0.0338,-0.0343,-0.0365,-0.0366,-0.0351,-0.0352,-0.0352,-0.0353,0,0,0,0,0,0,0,-0.0278,-0.0281,-0.0309,-0.0303,-0.0303,-0.0304,-0.0306,-0.0321,-0.0328,-0.0315,-0.0315,-0.0318,-0.0337,-0.0342,-0.0344,-0.0366,-0.0351,-0.0352,-0.0353,-0.0353,-0.0405,-0.0406,0,0,0,0,0,0,-0.0276,-0.028,-0.0308,-0.0309,-0.029,-0.0305,-0.0307,-0.0314,-0.0328,-0.0329,-0.0318,-0.0318,-0.034,-0.0342,-0.0345,-0.0367,-0.0352,-0.0353,-0.0354,-0.0405,-0.0405,-0.0406,0,0,0,0,0,0,-0.0275,-0.0278,-0.0307,-0.0295,-0.0298,-0.0306,-0.0314,-0.0315,-0.032,-0.033,-0.0331,-0.0322,-0.034,-0.0343,-0.0359,-0.0368,-0.0354,-0.0355,-0.0404,-0.0405,-0.0406,-0.0412,0,0,0,0,0,0,-0.0274,-0.0278,-0.0284,-0.0295,-0.0299,-0.0321,-0.0314,-0.0316,-0.0322,-0.0322,-0.0334,-0.0336,-0.034,-0.0357,-0.0361,-0.037,-0.0356,-0.0403,-0.0404,-0.0405,-0.0411,-0.0413,-0.0414,0,0,0,0,0,-0.0272,-0.0285,-0.0284,-0.0288,-0.0306,-0.0321,-0.0324,-0.0327,-0.0323,-0.033,-0.0336,-0.0335,-0.0366,-0.0359,-0.0363,-0.0372,-0.0403,-0.0404,-0.0405,-0.041,-0.0412,-0.0414,0,0,0,0,0,0,-0.0275,-0.0286,-0.0286,-0.0302,-0.0311,-0.0321,-0.0329,-0.0329,-0.034,-0.0339,-0.0344,-0.0347,-0.0364,-0.037,-0.0361,-0.0391,-0.0384,-0.0386,-0.0386,-0.0389,-0.039,-0.0389,-0.0358,0,0,0,0,0,-0.0277,-0.0288,-0.0297,-0.031,-0.0315,-0.0321,-0.0328,-0.033,-0.034,-0.0344,-0.0351,-0.0361,-0.0373,-0.0381,-0.0393,-0.0411,-0.0415,-0.042,-0.0422,-0.0423,-0.0425,-0.0437,-0.044,-0.041,-0.041,-0.041,0,0,-0.0283,-0.029,-0.0296,-0.0311,-0.0318,-0.033,-0.0325,-0.0337,-0.0346,-0.0346,-0.0362,-0.0368,-0.0379,-0.0398,-0.0406,-0.0403,-0.0434,-0.0425,-0.0426,-0.0427,-0.0439,-0.0441,-0.0444,-0.0411,-0.0411,-0.0411,0,0,-0.0298,-0.0304,-0.0317,-0.0324,-0.0335,-0.0339,-0.0342,-0.0353,-0.0357,-0.0373,-0.0374,-0.0385,-0.0405,-0.0414,-0.0421,-0.0441,-0.0442,-0.0445,-0.0454,-0.0466,-0.0468,-0.047,-0.0479,-0.0482,-0.0447,-0.0447,-0.0447,0,-0.0304,-0.032,-0.0323,-0.0336,-0.0343,-0.0343,-0.0357,-0.0364,-0.0378,-0.0383,-0.038,-0.0406,-0.0414,-0.0435,-0.044,-0.0445,-0.045,-0.0444,-0.0468,-0.047,-0.0472,-0.048,-0.0483,-0.0447,-0.0447,-0.0447,-0.0447,0,-0.0327,-0.0339,-0.0348,-0.0361,-0.037,-0.0382,-0.0388,-0.0396,-0.0398,-0.0403,-0.0421,-0.043,-0.0444,-0.0449,-0.0451,-0.0471,-0.0469,-0.0466,-0.046,-0.0475,-0.0483,-0.0486,-0.0448,-0.0448,-0.0448,-0.0447,0,0,-0.0345,-0.036,-0.0364,-0.0371,-0.0383,-0.0393,-0.0406,-0.042,-0.0427,-0.0437,-0.045,-0.0467,-0.0465,-0.0474,-0.0476,-0.0486,-0.0504,-0.0483,-0.0483,-0.0487,-0.0528,-0.0531,-0.0535,-0.0504,-0.0504,-0.0505,-0.0528,0,-0.0363,-0.0386,-0.039,-0.0411,-0.0423,-0.0423,-0.0435,-0.0445,-0.045,-0.0462,-0.0468,-0.0481,-0.0477,-0.0482,-0.0492,-0.0499,-0.0512,-0.0498,-0.0517,-0.0517,-0.0515,-0.0539,-0.0541,-0.0563,-0.0531,-0.0531,-0.0532,0,-0.0387,-0.0397,-0.042,-0.0432,-0.0437,-0.0447,-0.0461,-0.0471,-0.0483,-0.0486,-0.0496,-0.0498,-0.0513,-0.0506,-0.0528,-0.0518,-0.0526,-0.0531,-0.0532,-0.0535,-0.0526,-0.0543,-0.057,-0.0573,-0.0537,-0.0536,-0.0536,0,-0.0399,-0.0419,-0.0435,-0.0441,-0.0455,-0.0463,-0.0469,-0.048,-0.0488,-0.05,-0.0506,-0.052,-0.0528,-0.0539,-0.0545,-0.0539,-0.0568,-0.056,-0.0572,-0.0572,-0.0579,-0.0579,-0.0608,-0.0582,-0.0582,-0.0582,-0.0582,0,-0.0419,-0.0433,-0.0441,-0.0451,-0.0468,-0.0472,-0.0488,-0.0494,-0.0504,-0.0517,-0.0518,-0.053,-0.0536,-0.055,-0.0555,-0.0573,-0.0576,-0.0581,-0.0582,-0.0581,-0.0581,-0.0587,-0.0587,-0.0583,-0.0583,-0.0582,-0.0582,0,-0.0436,-0.0442,-0.046,-0.0472,-0.0475,-0.0487,-0.0498,-0.0508,-0.0514,-0.0529,-0.0533,-0.0543,-0.0558,-0.0565,-0.0585,-0.0588,-0.061,-0.0609,-0.0606,-0.0607,-0.0619,-0.0618,-0.0654,-0.066,-0.0629,-0.0629,-0.063,0,-0.0449,-0.046,-0.0473,-0.0481,-0.0488,-0.0501,-0.051,-0.0515,-0.0524,-0.0538,-0.0548,-0.0563,-0.0576,-0.0601,-0.061,-0.0626,-0.0627,-0.0638,-0.0629,-0.0628,-0.0629,-0.0628,-0.063,-0.064,-0.064,-0.0641,-0.0641,0,-0.0472,-0.0475,-0.0487,-0.05,-0.0511,-0.0522,-0.0532,-0.0539,-0.0546,-0.0557,-0.0573,-0.0583,-0.0603,-0.0619,-0.0635,-0.0642,-0.0644,-0.0644,-0.0648,-0.0647,-0.0646,-0.0648,-0.0612,-0.0643,-0.0643,-0.0643,-0.0643,-0.0642,-0.0489,-0.0499,-0.051,-0.0524,-0.0533,-0.0543,-0.0554,-0.0561,-0.0574,-0.0591,-0.0593,-0.061,-0.0623,-0.0645,-0.0653,-0.0668,-0.0665,-0.067,-0.0672,-0.0673,-0.0675,-0.0642,-0.067,-0.067,-0.067,-0.067,-0.067,0,-0.0513,-0.052,-0.0533,-0.0548,-0.056,-0.0559,-0.0571,-0.0581,-0.0596,-0.0607,-0.062,-0.0639,-0.0655,-0.0666,-0.0682,-0.0692,-0.0693,-0.0696,-0.0696,-0.0698,-0.0675,-0.0671,-0.0695,-0.0695,-0.0695,-0.0695,-0.0695,-0.0695,-0.0527,-0.0545,-0.0549,-0.0571,-0.0579,-0.0596,-0.0603,-0.0613,-0.0622,-0.0644,-0.0657,-0.0663,-0.0675,-0.0692,-0.0708,-0.071,-0.0717,-0.0721,-0.0724,-0.0702,-0.07,-0.0697,-0.0693,-0.0722,-0.0722,-0.0746,-0.0746,-0.0746]},{"header":{"parameterUnit":"m.s-1","parameterCategory":1,"la1":30.2991,"la2":30.254,"lo1":-89.0895,"lo2":-89.0444,"dy":0.0017,"dx":0.0017,"nx":28,"ny":28,"refTime":"2023-09-10T21:00:00:Z","depth":0,"parameterNumber":3,"parameterNumberName":"V-component_of_WINDS"},"data":[0,0,0,0,0,0,0,0,0,0,0,0,0,0,0,0,0,0,0,0,0,0,0,0,0,0,0,0,0,0,0,0,0,0,0,0,0,0,0,0,0,0,0,0,0,0,0,0,0,0,0,0,0,0,0,0,0,0,3.5842,3.5842,0,3.5852,3.5852,3.5852,3.579,3.5788,3.5787,3.5785,3.5794,3.5795,3.5797,0,0,0,0,0,0,0,0,0,0,0,0,0,3.5767,3.5769,3.5842,3.5842,3.5842,3.5852,3.5852,3.5852,3.579,3.5788,3.5786,3.5784,3.5793,3.5795,3.5797,0,0,0,0,0,0,0,0,0,0,0,0,0,3.5791,3.577,3.5842,3.5813,3.581,3.5852,3.5852,3.5852,3.5791,3.5788,3.5786,3.5783,3.5792,3.5795,3.5798,3.5868,0,0,3.5806,3.5808,0,0,0,0,0,0,0,0,3.5789,3.5793,3.5817,3.5815,3.5812,3.5817,3.5829,3.5857,3.5791,3.5798,3.5785,3.5782,3.5803,3.5805,3.5813,3.5868,3.5868,3.5807,3.5808,3.581,3.581,0,0,0,0,0,0,0,3.5788,3.5793,3.5846,3.5817,3.5814,3.5798,3.5799,3.5834,3.5815,3.5797,3.5793,3.5795,3.5802,3.581,3.5812,3.5869,3.5807,3.5809,3.5811,3.5812,3.598,3.5982,0,0,0,0,0,0,3.579,3.5792,3.5845,3.5846,3.5794,3.5802,3.5802,3.5818,3.5815,3.5812,3.5797,3.5792,3.5807,3.5809,3.5813,3.5892,3.5809,3.5812,3.5814,3.5977,3.598,3.5983,0,0,0,0,0,0,3.5789,3.5796,3.5845,3.5818,3.5823,3.5806,3.5824,3.582,3.5828,3.5815,3.5811,3.5809,3.5805,3.5809,3.5854,3.5892,3.5813,3.5816,3.5974,3.5978,3.5982,3.6054,0,0,0,0,0,0,3.5787,3.5796,3.5823,3.5819,3.5824,3.5887,3.5826,3.5822,3.5833,3.5827,3.5825,3.5822,3.5803,3.585,3.5857,3.5894,3.5818,3.597,3.5976,3.5981,3.6048,3.606,3.6071,0,0,0,0,0,3.5785,3.5843,3.5824,3.5831,3.5858,3.589,3.5893,3.5869,3.5837,3.5863,3.5854,3.5822,3.5887,3.5855,3.5862,3.5901,3.5968,3.5974,3.598,3.6043,3.6058,3.607,0,0,0,0,0,0,3.5851,3.5842,3.5821,3.588,3.5886,3.5879,3.5912,3.5886,3.5901,3.5894,3.5864,3.5865,3.5915,3.5913,3.5878,3.5968,3.5922,3.593,3.5967,3.5981,3.5992,3.5991,3.582,0,0,0,0,0,3.5873,3.59,3.589,3.5943,3.5947,3.5929,3.5942,3.5923,3.5928,3.593,3.5925,3.5931,3.5952,3.5967,3.5986,3.6048,3.6046,3.6078,3.609,3.6099,3.6105,3.6137,3.615,3.6004,3.6004,3.6004,0,0,3.5918,3.5916,3.5935,3.5956,3.5958,3.5986,3.5931,3.5964,3.5983,3.5935,3.5977,3.5974,3.5978,3.6032,3.6055,3.6032,3.6146,3.6107,3.6114,3.6116,3.6145,3.6158,3.6171,3.6008,3.6007,3.6007,0,0,3.6013,3.6015,3.6058,3.6062,3.6066,3.6054,3.6064,3.6061,3.6057,3.6099,3.6063,3.6086,3.6124,3.6128,3.6135,3.6231,3.6202,3.6238,3.6296,3.6326,3.6338,3.6348,3.6381,3.6393,3.6245,3.6245,3.6245,0,3.6067,3.6108,3.6083,3.6117,3.6127,3.6085,3.6128,3.6132,3.6143,3.615,3.6124,3.617,3.617,3.6223,3.6247,3.6254,3.6264,3.6237,3.6338,3.6348,3.6357,3.6388,3.64,3.625,3.6249,3.6249,3.6248,0,3.6174,3.6203,3.6237,3.6248,3.6262,3.6301,3.628,3.6297,3.6278,3.6268,3.6311,3.6309,3.6326,3.6338,3.632,3.6389,3.6374,3.6344,3.6296,3.6376,3.6404,3.6416,3.6256,3.6254,3.6253,3.6252,0,0,3.6311,3.6307,3.632,3.6324,3.6326,3.6347,3.6383,3.64,3.6415,3.6423,3.6452,3.6485,3.6456,3.6464,3.6446,3.6473,3.6547,3.6439,3.6439,3.6458,3.6621,3.6643,3.6657,3.6529,3.6531,3.6533,3.6621,0,3.6402,3.6464,3.6442,3.6504,3.6529,3.649,3.6521,3.6525,3.6517,3.6537,3.6527,3.655,3.6512,3.6517,3.6542,3.6533,3.6579,3.6527,3.6553,3.6555,3.6552,3.6672,3.6695,3.6778,3.6632,3.6633,3.6635,0,3.6517,3.653,3.6595,3.6591,3.6601,3.6629,3.6642,3.6662,3.6666,3.6658,3.6667,3.6642,3.6676,3.663,3.6675,3.664,3.665,3.6647,3.665,3.665,3.6598,3.6674,3.6804,3.6816,3.6652,3.6651,3.665,0,3.6608,3.6642,3.6684,3.6689,3.6686,3.6707,3.6707,3.6707,3.6719,3.673,3.6737,3.6753,3.6761,3.6773,3.6753,3.6722,3.6801,3.6754,3.6794,3.6795,3.6811,3.681,3.6944,3.6821,3.6821,3.6821,3.682,0,3.6711,3.6752,3.6725,3.6751,3.6795,3.677,3.6814,3.6809,3.681,3.6834,3.6801,3.6824,3.6797,3.6817,3.6802,3.6841,3.6845,3.6839,3.6834,3.6841,3.6841,3.6846,3.6839,3.6824,3.6823,3.6823,3.6822,0,3.682,3.6804,3.6847,3.6841,3.684,3.6873,3.6866,3.689,3.6879,3.691,3.6915,3.6899,3.6921,3.6902,3.6924,3.6913,3.6965,3.6953,3.6964,3.696,3.7001,3.6997,3.714,3.7157,3.7025,3.7026,3.7028,0,3.6886,3.6916,3.6913,3.6926,3.6928,3.6951,3.6962,3.6938,3.6951,3.6956,3.6979,3.6998,3.7012,3.7049,3.7038,3.7054,3.7041,3.709,3.7043,3.7049,3.704,3.7037,3.704,3.7099,3.7101,3.7102,3.7103,0,3.7005,3.6995,3.7012,3.7027,3.7041,3.7052,3.7059,3.7072,3.7047,3.7063,3.7085,3.7096,3.7118,3.7137,3.7149,3.7148,3.7121,3.7118,3.7128,3.7135,3.7139,3.7135,3.6988,3.7115,3.7113,3.7113,3.7112,3.7111,3.7093,3.7117,3.7118,3.7138,3.7142,3.7149,3.717,3.7163,3.718,3.7196,3.7181,3.7207,3.7209,3.7222,3.7225,3.7244,3.7224,3.7239,3.7242,3.7246,3.7251,3.7137,3.7247,3.7246,3.7246,3.7246,3.7246,0,3.7208,3.7207,3.7226,3.7237,3.7253,3.7227,3.7234,3.7248,3.7272,3.7276,3.729,3.7314,3.7333,3.7324,3.7339,3.7357,3.7345,3.7361,3.7359,3.7359,3.7269,3.7258,3.7371,3.7371,3.7371,3.7371,3.7371,3.7371,3.727,3.7309,3.73,3.734,3.7338,3.7363,3.7369,3.7376,3.7379,3.7408,3.7422,3.7416,3.7415,3.743,3.7445,3.7442,3.7448,3.7469,3.7462,3.7378,3.7365,3.7354,3.7343,3.7472,3.7472,3.755,3.755,3.7551]}]]